Location: Austin
(30.3000°N, 97.7500°W)
Time: 12:48:55
(UTC-05:00)

Timation 2 Rocket - Pass Details

Date: 05 September 2024
Orbit: 906 x 1074 km, 70.0° (Epoch: 10 September)

Event Time Altitude Azimuth Distance (km) Brightness Sun altitude
Rises 21:45:15 0° 340° (NNW) 3,645 7.6 -25.1°
Reaches altitude 10° 21:47:45 10° 341° (NNW) 2,720 6.9 -25.6°
Maximum altitude 21:54:07 83° 69° (ENE) 1,015 3.9 -26.8°
Enters shadow 21:55:09 65° 143° (SE) 1,100 3.9 -27.0°
